Regional Weather Roundup
Issued by NWS

Home | Current Version | Previous Version | Graphics & Text | Print | Product List | Glossary On
Versions: 1 2 3 4 5 6 7 8 9 10 11 12 13 14 15 16 17 18 19 20 21 22 23 24 25 26 27 28 29 30 31 32 33 34 35 36 37 38 39 40 41 42 43 44 45 46 47 48 49 50
000
ASUS43 KMKX 292300
RWRWI

WISCONSIN REGIONAL WEATHER ROUNDUP
NATIONAL WEATHER SERVICE MILWAUKEE/SULLIVAN WI
600 PM CDT FRI AUG 29 2014

NOTE: "FAIR" INDICATES FEW OR NO CLOUDS BELOW 12,000 FEET WITH NO
SIGNIFICANT WEATHER AND/OR OBSTRUCTIONS TO VISIBILITY.

WIZ001-002-006>008-014>016-023>028-300000-
NORTHWEST WISCONSIN

CITY           SKY/WX    TMP DP  RH WIND       PRES   REMARKS
SUPERIOR ARPT  CLOUDY    62  61  97 NE6       29.76R FOG
ASHLAND        CLOUDY    69  67  93 CALM      29.76S
HAYWARD        CLOUDY    69  67  93 CALM      29.78R
SIREN          PTSUNNY   69  66  92 CALM      29.76S
RICE LAKE      CLOUDY    69  67  92 SE3       29.76F
LADYSMITH      TSTM      67  65  94 SE7       29.81F
EAU CLAIRE     TSTM      72  70  94 S3        29.77R
MENOMONIE      CLOUDY    70  65  86 S3        29.77R
NEW RICHMOND   CLOUDY    73  68  83 SE3       29.75S
OSCEOLA        RAIN      71  71 100 CALM      29.76S
$$

WIZ003>005-009-010-017-018-300000-
NORTH CENTRAL WISCONSIN

CITY           SKY/WX    TMP DP  RH WIND       PRES   REMARKS
WOODRUFF       PTSUNNY   72  68  87 CALM      29.84R
RHINELANDER    MOSUNNY   69  66  90 SE6       29.85S
EAGLE RIVER      N/A     70  66  88 SW5       29.84R
LAND O LAKES   CLOUDY    70  65  83 SW3       29.85R
PHILLIPS       TSTM      66  64  93 CALM      29.82R
TOMAHAWK       MOSUNNY   71  67  87 CALM      29.83F FOG
MEDFORD        PTSUNNY   74  70  87 SE5       29.80F
MERRILL        CLOUDY    76  70  83 S3        29.81S
$$

WIZ029-030-035-036-043>047-300000-
CENTRAL WISCONSIN

CITY           SKY/WX    TMP DP  RH WIND       PRES   REMARKS
WAUSAU         MOSUNNY   80  71  74 S7        29.79S HX  84
MOSINEE        MOSUNNY   81  73  78 S6        29.81F HX  85
MARSHFIELD     MOSUNNY   78  67  68 S10G21    29.79S HX  80
STEVENS POINT  PTSUNNY   80  70  70 S7        29.80F HX  84
WAUPACA        MOSUNNY   85  71  61 S12       29.80S HX  90
WAUTOMA        NOT AVBL
WISC RAPIDS    MOSUNNY   83  70  64 S7        29.81R HX  87
CAMP DOUGLAS   NOT AVBL
$$

WIZ011>013-019>022-031-037>040-048>050-300000-
NORTHEAST WISCONSIN

CITY           SKY/WX    TMP DP  RH WIND       PRES   REMARKS
ANTIGO         MOSUNNY   74  69  85 S6        29.84S
STURGEON BAY   SUNNY     70  64  83 S18G31    29.85R
GREEN BAY      MOSUNNY   79  73  82 SE10      29.82R HX  82
MANITOWOC      NOT AVBL
APPLETON       PTSUNNY   81  70  69 S10       29.83R HX  84
CLINTONVILLE   SUNNY     84  70  61 S9        29.80S HX  88
OSHKOSH        SUNNY     81  72  74 S13       29.81S HX  85
$$

WIZ032>034-041-042-053>061-300000-
SOUTHWEST WISCONSIN

CITY           SKY/WX    TMP DP  RH WIND       PRES   REMARKS
LA CROSSE      MOSUNNY   85  71  63 S9        29.74R HX  90
SPARTA         MOSUNNY   85  67  54 S9        29.77S HX  87
VIROQUA        FAIR      81  69  65 S10G16    29.80R HX  84
BOSCOBEL       MOSUNNY   86  68  54 S7        29.77F HX  89
PRAIRIE DU CHI NOT AVBL
PLATTEVILLE    FAIR      83  71  67 S12G17    29.82F HX  87
$$

WIZ056-057-062-063-064-067-068-300000-
SOUTH CENTRAL WISCONSIN

CITY           SKY/WX    TMP DP  RH WIND       PRES   REMARKS
BARABOO/DELLS  PTSUNNY   84  67  57 S12G18    29.80S HX  87
LONE ROCK      NOT AVBL
WATERTOWN      SUNNY     81  73  76 S5        29.84S HX  86
MADISON        MOSUNNY   84  70  62 S15G23    29.82F HX  88
MIDDLETON      FAIR      85  70  60 S14       29.83S HX  89
MONROE         MOSUNNY   82  72  69 S13       29.84F HX  87
JANESVILLE     SUNNY     84  68  58 S12       29.85R HX  87
$$

WIZ051-052-058>065-066-070>072-300000-
SOUTHEAST WISCONSIN

CITY           SKY/WX    TMP DP  RH WIND       PRES   REMARKS
MILWAUKEE      PTSUNNY   78  71  79 S15       29.87S HX  80
WAUKESHA       NOT AVBL
MILWAUKEE/TIMM NOT AVBL
RACINE         PTSUNNY   77  70  79 S15G23    29.89S
BURLINGTON     PTSUNNY   80  71  73 S8        29.86S HX  84
KENOSHA        MOSUNNY   80  73  79 SE13      29.88S HX  84
FOND DU LAC    MOSUNNY   80  68  66 S13       29.83S HX  83
SHEBOYGAN      PTSUNNY   74  69  85 S13G20    29.86S
WEST BEND      SUNNY     79  70  73 S9        29.86R HX  81
JUNEAU         MOSUNNY   80  71  74 S12       29.85F HX  83
$$

LSZ147-162-300000-
LAKE SUPERIOR

STATION/POSITION TIME  TEMP    WIND        PRES    WAVE
                       AIR SEA DIR/SP/G            HT/PER
                 (UTC) (F)     (DEG/KT/KT) (MB)    (FT/S)
W MID LAKE BUOY  2150   59 57  100/  4/  4 1007.6S   1
DEVILS ISLAND    2200   62      30/  5/  6 1007.3F
PORT WING        2200   64      30/  9/ 10 1007.5S
SAXON HARBOR     2240   67     290/  4/  6 1007.8S
$$

LMZ867-665-643>646-300000-
LAKE MICHIGAN

STATION/POSITION TIME  TEMP    WIND        PRES    WAVE
                       AIR SEA DIR/SP/G            HT/PER
                 (UTC) (F)     (DEG/KT/KT) (MB)    (FT/S)
N MID LAKE BUOY  2150   67 65  200/  6/  8 1011.0F   3/ 5
NORTHPORT PIER   2200   69     170/ 11/ 20 1010.5F
SISTER BAY       2211   71     180/ 20/ 29   N/A
KEWAUNEE LAKESHO 2200   67     170/ 16/ 21 1010.0F
SHEBOYGAN LAKESH 2200   68 69  180/ 16/ 17 1011.1F
ATWATER BUOY     2200   72     160/ 16/ 17 1012.5R
MILWAUKEE LAKESH 2200   72     160/ 15/ 16   N/A
S MID LAKE BUOY  2150   72 69  150/ 16/ 19 1012.5F   3/ 4
KENOSHA   LAKESH 2200   74     180/ 16/ 19 1011.5S
$$

TC  - TEMPERATURE IN CELSIUS
VSB - VISIBILITY IN STATUTE MILES
WCI - WIND CHILL INDEX
HX  - HEAT INDEX




USA.gov is the U.S. government's official web portal to all federal, state and local government web resources and services.